This is the latest recevied weather packets stored in our database for station/object KD4KKF. If no packets are shown the sender has not sent any weather packets the latest 10 day(s).
| Time | Temp. | Humidity | Pressure | Rain* | Wind** | Luminosity | Snow |
|---|---|---|---|---|---|---|---|
| 1778104911 | 21.67° C | 99% | 1010.3 hPa | 0 mm | - | 83 W/m² | - |
| 1778104608 | 21.67° C | 99% | 1010 hPa | 0 mm | - | 75 W/m² | - |
| 1778104303 | 21.67° C | 99% | 1010.1 hPa | 0 mm | - | 61 W/m² | - |
| 1778104000 | 21.67° C | 99% | 1010 hPa | 0 mm | - | 54 W/m² | - |
| 1778103698 | 21.67° C | 99% | 1009.9 hPa | 0 mm | - | 150 W/m² | - |
| 1778103397 | 21.67° C | 99% | 1009.8 hPa | 0 mm | - | 155 W/m² | - |
| 1778103093 | 21.67° C | 99% | 1009.7 hPa | 6.1 mm | - | 111 W/m² | - |
| 1778102790 | 21.67° C | 99% | 1009.8 hPa | 21.08 mm | - | 125 W/m² | - |
| 1778102485 | 21.67° C | 99% | 1010 hPa | 32.51 mm | - | 72 W/m² | - |
| 1778102181 | 21.67° C | 99% | 1009.8 hPa | 42.67 mm | - | 86 W/m² | - |
| 1778101878 | 22.22° C | 99% | 1009.9 hPa | 28.7 mm | - | 16 W/m² | - |
| 1778101575 | 22.78° C | 98% | 1009.4 hPa | 6.1 mm | - | 22 W/m² | - |
| 1778101271 | 23.33° C | 96% | 1009.3 hPa | 1.78 mm | - | 16 W/m² | - |
| 1778100968 | 23.89° C | 94% | 1009.4 hPa | 0 mm | - | 6 W/m² | - |
| 1778100663 | 24.44° C | 91% | 1009.7 hPa | 0 mm | - | 12 W/m² | - |
| 1778100361 | 24.44° C | 91% | 1009.8 hPa | 0 mm | - | 65 W/m² | - |
| 1778100058 | 25° C | 91% | 1009.5 hPa | 0 mm | - | 49 W/m² | - |
| 1778099756 | 25° C | 91% | 1009.4 hPa | 0 mm | - | 46 W/m² | - |
| 1778099452 | 25.56° C | 89% | 1009 hPa | 0 mm | - | 42 W/m² | - |
| 1778099150 | 25.56° C | 88% | 1009.5 hPa | 0 mm | - | 55 W/m² | - |
| 1778098846 | 25.56° C | 88% | 1009.4 hPa | 0 mm | - | 221 W/m² | - |
| 1778098544 | 26.11° C | 86% | 1009.7 hPa | 0 mm | - | 154 W/m² | - |
| 1778098240 | 26.11° C | 87% | 1009.5 hPa | 0 mm | - | 216 W/m² | - |
| 1778097937 | 26.11° C | 85% | 1009.7 hPa | 0 mm | - | 212 W/m² | - |
| 1778097633 | 26.11° C | 86% | 1009.8 hPa | 0 mm | - | 328 W/m² | - |
* Rain latest hour (hover to see other rain measurements)
** Current wind speed in m/s (hover to see current wind gust speed)